Regional Weather Roundup
Issued by NWS Nashville, TN

Home | Current Version | Previous Version | Text Only | Print | Product List | Glossary On
Versions: 1 2 3 4 5 6 7 8 9 10 11 12 13 14 15 16 17 18 19 20 21 22 23 24 25 26 27 28 29 30 31 32 33 34 35 36 37 38 39 40 41 42 43 44 45 46 47 48 49 50
000
ASUS44 KOHX 280305
RWROHX
MIDDLE TENNESSEE HOURLY WEATHER ROUNDUP
NATIONAL WEATHER SERVICE NASHVILLE TN
1000 PM CDT WED MAY 27 2015

NOTE: "FAIR" INDICATES FEW OR NO CLOUDS BELOW 12,000 FEET WITH
NO SIGNIFICANT WEATHER AND/OR OBSTRUCTIONS TO VISIBILITY.

* THESE REPORTS ARE NOT UNDER NWS QUALITY CONTROL AND MAY NOT
  REPORT WEATHER SUCH AS PRECIPITATION AND FOG.


TNZ005>011-023>034-057-059-062>066-078-080-280400
...NORTHERN MIDDLE TENNESSEE...

CITY           SKY/WX    TMP DP  RH WIND       PRES   REMARKS
CASTALIAN SPRG   N/A     66  66 100 CALM      29.98R
CLARKSVILLE    CLOUDY    68  66  93 SE5       30.16R
CROSSVILLE     CLOUDY    68  62  81 SW3       30.26R
JOELTON*         N/A     68  66  94 S1        30.11R
NASHVILLE      CLOUDY    69  67  93 S6        30.20R
OLD HICKORY*     N/A     70  68  94 CALM      29.82R
SMYRNA         CLOUDY    70  68  94 S3        30.21R
SPARTA         CLEAR     68  66  94 SE3       30.21R
$$
TNZ056-058-060-061-075>077-079-093>097-280400
...SOUTHERN MIDDLE TENNESSEE...

CITY           SKY/WX    TMP DP  RH WIND       PRES   REMARKS
COLUMBIA       CLOUDY    68  68 100 SE3       30.18R
MANCHESTER*      N/A     68   0   6 CALM      30.18R
MCMINNVILLE    CLOUDY    68  68 100 CALM      30.23R
SHELBYVILLE    CLOUDY    70  70 100 S6        30.24R
TULLAHOMA      CLOUDY    68  66  94 S8        30.27R
WINCHESTER     CLOUDY    66  64  94 CALM      30.26R
$$


...KEY TO REMARKS...
VSB - VISIBILITY IN MILES
WCI - WIND CHILL INDEX
HX  - HEAT INDEX



USA.gov is the U.S. government's official web portal to all federal, state and local government web resources and services.